IVALO current weather conditions

sailwx.info

Wind from 240 at 2 knots

Air temperature -3.0° C
Visibility: greater than 5.4 NM
Dewpoint -4.0° C
Present weather: Light snow.

Last reported at 2017-Mar-23 00:20 UTC.
Time now 2017-Mar-23 02:21 UTC

Location: N 68°37' E 027°25'.
View on Google Maps.

See reports from other nearby stations

  
Tides and Currents Weather Stations Pressure Air Temp Water Temp Dewpoint Dewpoint Depression Visibility Wind Speed Wind Dir Waves Ship Positions
date/time (UTC)wind fromknots sea level pressurealtimeterstation pressurevisibilityair tempwater tempwave heightnotes
2017-Mar-23 01:20 230 2 1.9-4.0 Light snow.
2017-Mar-23 00:50 230 2 5.4-4.0 Light snow.
2017-Mar-23 00:20 240 2 5.4-3.0 Light snow.
2017-Mar-22 23:50 230 4 2.0-3.0 Light snow.
2017-Mar-22 23:20 240 1 5.4-3.0 Light snow.
2017-Mar-22 22:50 240 1 5.4-3.0 Light snow.
2017-Mar-22 22:20 220 1 5.4-3.0 Light snow.
2017-Mar-22 21:50 250 0 5.4-3.0 Light snow.
2017-Mar-22 21:20 340 0 4.9-3.0 Light snow.
2017-Mar-22 20:50 360 0 5.4-3.0 Light snow.
2017-Mar-22 20:20 040 1 4.9-3.0 Light snow.
2017-Mar-22 19:50 310 0 5.4-2.0 Light snow.
2017-Mar-22 19:20 5.4-2.0 Light snow.
2017-Mar-22 18:50 250 1 5.4-2.0 Light snow.
2017-Mar-22 18:20 270 0 5.4-2.0 Light snow.
2017-Mar-22 17:50 050 1 5.4-1.0 Snow grains.
2017-Mar-22 17:20 320 0 5.4-1.0 Light snow.
2017-Mar-22 16:50 350 1 5.4-1.0 Light snow.
2017-Mar-22 16:20 040 1 5.4-1.0 Light snow.
2017-Mar-22 15:50 100 0 5.4-0.0 Light snow.
2017-Mar-22 15:20 150 2 4.3-0.0 Light snow.
2017-Mar-22 14:50 130 2 5.4-0.0 Light snow.
2017-Mar-22 14:20 140 2 5.4-0.0 Light snow.
2017-Mar-22 13:50 160 6 5.4-0.0 Light rain.
2017-Mar-22 13:20 160 5 5.4-0.0
2017-Mar-22 12:50 140 4 5.4-0.0
2017-Mar-22 12:20 150 6 5.4-0.0
2017-Mar-22 11:20 130 6 5.4-0.0
2017-Mar-22 10:50 130 7 2.7-0.0 Light snow.
2017-Mar-22 10:14 140 9 5.4-0.0 Light snow.
2017-Mar-22 09:50 130 12 5.4-0.0
2017-Mar-22 09:20 140 11 5.4 1.0
2017-Mar-22 08:50 110 7 5.4 1.0
2017-Mar-22 08:20 080 5 5.4-0.0
2017-Mar-22 07:50 070 6 5.4-0.0
2017-Mar-22 07:20 110 6 5.4-0.0
2017-Mar-22 06:50 110 6 5.4-0.0
2017-Mar-22 06:20 070 5 5.4-0.0
2017-Mar-22 05:50 040 5 5.4-1.0
2017-Mar-22 05:20 030 4 5.4-2.0
2017-Mar-22 04:50 5.4-2.0
2017-Mar-22 04:20 5.4-2.0
2017-Mar-22 03:50 110 4 5.4-1.0
2017-Mar-22 03:20 110 2 5.4-2.0
2017-Mar-22 02:50 020 1 5.4-2.0
2017-Mar-22 02:20 140 1 5.4-1.0
2017-Mar-22 01:50 5.4-2.0
2017-Mar-22 01:20 5.4-2.0
2017-Mar-22 00:50 5.4-3.0
2017-Mar-22 00:20 330 1 5.4-3.0
2017-Mar-21 23:50 5.4-4.0
2017-Mar-21 23:20 040 1 5.4-3.0
2017-Mar-21 22:50 5.4-3.0
2017-Mar-21 22:20 170 4 5.4-3.0
2017-Mar-21 21:50 170 6 5.4-2.0
2017-Mar-21 21:20 170 7 5.4-2.0
2017-Mar-21 20:50 160 7 5.4-1.0
2017-Mar-21 20:20 160 6 5.4-2.0
2017-Mar-21 19:50 170 7 5.4-1.0
2017-Mar-21 19:20 170 9 5.4-2.0
2017-Mar-21 18:50 180 8 5.4-1.0
2017-Mar-21 18:20 170 6 5.4-1.0
2017-Mar-21 17:50 150 6 5.4-1.0
2017-Mar-21 17:20 150 6 5.4-1.0
2017-Mar-21 16:50 160 6 5.4-1.0
2017-Mar-21 16:20 170 8 5.4-0.0
2017-Mar-21 15:50 170 8 5.4-0.0
2017-Mar-21 15:20 180 7 5.4-1.0
2017-Mar-21 14:50 180 6 5.4-0.0
2017-Mar-21 14:20 180 7 5.4-0.0
2017-Mar-21 13:50 190 5 5.4-1.0
2017-Mar-21 13:20 190 9 5.4-1.0
2017-Mar-21 12:50 180 11 5.4-0.0
2017-Mar-21 12:20 180 11 5.4-0.0
2017-Mar-21 09:20 170 12 5.4-1.0
2017-Mar-21 08:50 160 13 5.4-2.0
2017-Mar-21 08:20 150 11 5.4-2.0
2017-Mar-21 07:50 160 12 5.4-3.0
2017-Mar-21 07:20 170 8 5.4-3.0
2017-Mar-21 06:50 5.4-4.0
2017-Mar-21 06:20 5.4-5.0
2017-Mar-21 05:50 260 2 5.4-6.0
2017-Mar-21 05:20 230 5 5.4-6.0
2017-Mar-21 04:50 250 2 5.4-6.0
2017-Mar-21 04:20 340 1 5.4-7.0
2017-Mar-21 03:50 5.4-7.0
2017-Mar-21 03:20 350 2 5.4-7.0
2017-Mar-21 02:50 350 4 5.4-6.0
2017-Mar-21 02:20 350 4 5.4-6.0